Location: Kellogg
(38.0159°N, 90.0546°W)
Time: 07:21:10
(UTC+00:00)

Vanguard 1 Rocket - Pass Details

Date: 13 September 2024
Orbit: 650 x 4218 km, 34.3° (Epoch: 05 October)

Event Time Altitude Azimuth Distance (km) Brightness Sun altitude
Rises 12:33:12 0° 267° (W) 6,627 11.1 9.5°
Reaches altitude 10° 12:36:53 10° 266° (W) 5,974 11.0 10.2°
Maximum altitude 12:58:26 80° 184° (S) 4,160 11.0 14.4°
Drops below altitude 10° 13:24:21 10° 102° (ESE) 6,944 14.4 19.5°
Sets 13:29:05 0° 102° (ESE) 7,680 13.7 20.4°
